This is the latest recevied weather packets stored in our database for station/object KD2PO-13. If no packets are shown the sender has not sent any weather packets the latest 1 day(s).
| Time | Temp. | Humidity | Pressure | Rain* | Wind** | Luminosity | Snow |
|---|---|---|---|---|---|---|---|
| 1778004021 | 21.67° C | 51% | 0 hPa | 0 mm | 3.58 m/s, 220° | - | - |
| 1778003719 | 21.67° C | 49% | 0 hPa | 0 mm | 4.02 m/s, 215° | - | - |
| 1778003118 | 22.78° C | 47% | 0 hPa | 0 mm | 4.02 m/s, 212° | - | - |
| 1778002818 | 22.78° C | 48% | 0 hPa | 0 mm | 4.47 m/s, 218° | - | - |
| 1778002518 | 22.78° C | 49% | 0 hPa | 0 mm | 3.13 m/s, 217° | - | - |
| 1778002218 | 22.22° C | 49% | 0 hPa | 0 mm | 4.02 m/s, 213° | - | - |
| 1778001918 | 21.67° C | 52% | 0 hPa | 0 mm | 1.79 m/s, 264° | - | - |
| 1778001618 | 21.67° C | 51% | 0 hPa | 0 mm | 1.34 m/s, 235° | - | - |
| 1778001319 | 21.67° C | 51% | 0 hPa | 0 mm | 2.24 m/s, 252° | - | - |
| 1778001019 | 21.67° C | 50% | 0 hPa | 0 mm | 3.58 m/s, 241° | - | - |
| 1778000719 | 21.67° C | 51% | 0 hPa | 0 mm | 2.68 m/s, 269° | - | - |
| 1778000419 | 21.67° C | 51% | 0 hPa | 0 mm | 3.58 m/s, 210° | - | - |
| 1778000119 | 21.67° C | 50% | 0 hPa | 0 mm | 4.02 m/s, 266° | - | - |
| 1777999519 | 21.67° C | 50% | 0 hPa | 0 mm | 3.58 m/s, 273° | - | - |
| 1777999219 | 21.67° C | 49% | 0 hPa | 0 mm | 4.92 m/s, 261° | - | - |
| 1777998918 | 21.67° C | 50% | 0 hPa | 0 mm | 4.47 m/s, 261° | - | - |
| 1777998325 | 21.67° C | 51% | 0 hPa | 0 mm | 3.58 m/s, 242° | - | - |
| 1777998018 | 21.67° C | 50% | 0 hPa | 0 mm | 1.79 m/s, 252° | - | - |
| 1777997718 | 21.67° C | 50% | 0 hPa | 0 mm | 4.47 m/s, 253° | - | - |
| 1777997418 | 21.67° C | 50% | 0 hPa | 0 mm | 4.92 m/s, 241° | - | - |
| 1777997118 | 21.67° C | 51% | 0 hPa | 0 mm | 4.02 m/s, 237° | - | - |
| 1777996818 | 21.67° C | 50% | 0 hPa | 0 mm | 3.13 m/s, 211° | - | - |
| 1777996518 | 21.67° C | 49% | 0 hPa | 0 mm | 4.92 m/s, 243° | - | - |
| 1777996219 | 22.22° C | 49% | 0 hPa | 0 mm | 4.02 m/s, 224° | - | - |
| 1777995919 | 22.22° C | 51% | 0 hPa | 0 mm | 2.24 m/s, 195° | - | - |
* Rain latest hour (hover to see other rain measurements)
** Current wind speed in m/s (hover to see current wind gust speed)